Weather History for Clarksburg, WV

Change the Weather History Date:

Saturday, March 15, 2014

  Actual Average Record
Temperature  
Mean Temperature 49 °F -  
Max Temperature 55 °F 51 °F 83 °F (1973)
Min Temperature 41 °F 28 °F -1 °F (1993)
Degree Days  
Heating Degree Days 16    
Moisture  
Dew Point 26 °F    
Average Humidity 41    
Maximum Humidity 71    
Minimum Humidity 24    
Precipitation  
Precipitation 0.00 in - - ()
Sea Level Pressure  
Sea Level Pressure 29.95 in    
Wind  
Wind Speed 14 mph (West)    
Max Wind Speed 22 mph    
Max Gust Speed 36 mph    
Visibility 10 miles    
Events Rain    
Averages and records for this station are not official NWS values.
T = Trace of Precipitation, MM = Missing Value Source: NWS Daily Summary

Daily Weather History Graph

Daily Weather History Graph

Search for Another Location

Airport:

Trip Planner

Search our weather history database for the weather conditions in past years. The results will help you decide how hot, cold, wet, or windy it might be!

Date:

Astronomy

Mar. 15, 2014 Rise Set
Actual Time 7:32 AM EDT 7:27 PM EDT
Civil Twilight 7:05 AM EDT 7:54 PM EDT
Nautical Twilight 6:34 AM EDT 8:25 PM EDT
Astronomical Twilight 6:03 AM EDT 8:57 PM EDT
Moon 6:45 PM EDT (3/15) 6:43 AM EDT (3/15)
Length of Visible Light 12h 49m
Length of Day
11h 55m
Waxing Gibbous, 99% of the Moon is Illuminated
Mar 15
Waxing Gibbous
Mar 16
Full
Mar 23
Last Quarter
Mar 30
New
Apr 7
First Quarter

Hourly Weather History & Observations

Time (EDT) Temp. Windchill Dew Point Humidity Pressure Visibility Wind Dir Wind Speed Gust Speed Precip Events Conditions
12:53 AM 52.0 °F - 32.0 °F 47% 29.83 in 10.0 mi SW 15.0 mph - 0.00 in   Overcast
1:53 AM 53.1 °F - 30.9 °F 43% 29.80 in 10.0 mi SW 18.4 mph 35.7 mph N/A   Overcast
2:53 AM 54.0 °F - 30.9 °F 41% 29.80 in 10.0 mi WSW 17.3 mph 24.2 mph N/A   Overcast
3:53 AM 51.1 °F - 35.1 °F 54% 29.81 in 10.0 mi West 16.1 mph 32.2 mph 0.00 in Rain Light Rain
4:53 AM 46.9 °F - 37.9 °F 71% 29.84 in 10.0 mi WNW 17.3 mph 31.1 mph 0.00 in Rain Light Rain
5:53 AM 46.9 °F - 36.0 °F 66% 29.87 in 10.0 mi West 11.5 mph 21.9 mph 0.00 in Rain Light Rain
6:53 AM 46.0 °F 41.9 °F 32.0 °F 58% 29.88 in 10.0 mi WSW 8.1 mph - 0.00 in   Overcast
7:53 AM 46.0 °F 39.3 °F 28.9 °F 51% 29.92 in 10.0 mi West 16.1 mph 20.7 mph N/A   Overcast
8:53 AM 46.0 °F 40.2 °F 30.9 °F 56% 29.94 in 10.0 mi West 12.7 mph 18.4 mph N/A   Mostly Cloudy
9:53 AM 46.9 °F - 26.1 °F 44% 29.97 in 10.0 mi West 15.0 mph 27.6 mph N/A   Clear
10:53 AM 48.9 °F - 23.0 °F 36% 29.99 in 10.0 mi WSW 17.3 mph 26.5 mph N/A   Clear
11:53 AM 51.1 °F - 23.0 °F 33% 29.99 in 10.0 mi West 13.8 mph 26.5 mph N/A   Clear
12:53 PM 54.0 °F - 24.1 °F 31% 29.99 in 10.0 mi WNW 16.1 mph 26.5 mph N/A   Partly Cloudy
1:53 PM 53.1 °F - 21.9 °F 30% 29.98 in 10.0 mi West 21.9 mph 27.6 mph N/A   Partly Cloudy
2:53 PM 55.0 °F - 21.0 °F 27% 29.97 in 10.0 mi West 12.7 mph 27.6 mph N/A   Clear
3:53 PM 55.9 °F - 21.9 °F 27% 29.96 in 10.0 mi West 15.0 mph 23.0 mph N/A   Clear
4:53 PM 55.9 °F - 19.9 °F 25% 29.96 in 10.0 mi WSW 17.3 mph 24.2 mph N/A   Clear
5:53 PM 55.0 °F - 19.0 °F 24% 29.98 in 10.0 mi WNW 18.4 mph 29.9 mph N/A   Clear
6:53 PM 53.1 °F - 19.9 °F 27% 30.01 in 10.0 mi West 10.4 mph 19.6 mph N/A   Clear
7:53 PM 51.1 °F - 19.9 °F 29% 30.04 in 10.0 mi WNW 9.2 mph - N/A   Clear
8:53 PM 48.0 °F - 21.0 °F 34% 30.05 in 10.0 mi NW 4.6 mph - N/A   Clear
9:53 PM 46.0 °F 41.9 °F 21.9 °F 39% 30.06 in 10.0 mi NNW 8.1 mph - N/A   Clear
10:53 PM 43.0 °F 38.8 °F 21.9 °F 43% 30.07 in 10.0 mi NNW 6.9 mph - N/A   Clear
11:53 PM 41.0 °F 39.0 °F 23.0 °F 49% 30.09 in 10.0 mi NE 3.5 mph - N/A   Clear